Weather History for Augusta, GA

Change the Weather History Date:

Tuesday, December 3, 2013

  Actual Average Record
Temperature  
Mean Temperature 56 °F -  
Max Temperature 61 °F 59 °F 77 °F (1998)
Min Temperature 51 °F 42 °F 29 °F (2008)
Degree Days  
Heating Degree Days 9    
Month to date heating degree days 32  
Growing Degree Days 6 (Base 50)    
Moisture  
Dew Point 54 °F    
Average Humidity 90    
Maximum Humidity 100    
Minimum Humidity 77    
Precipitation  
Precipitation 0.79 in - - ()
Month to date precipitation 0.79  
Year to date precipitation 54.34  
Sea Level Pressure  
Sea Level Pressure 29.93 in    
Wind  
Wind Speed 4 mph (SE)    
Max Wind Speed 13 mph    
Max Gust Speed 16 mph    
Visibility 6 miles    
Events Rain    
Averages and records for this station are not official NWS values.
T = Trace of Precipitation, MM = Missing Value Source: NWS Daily Summary

Daily Weather History Graph

Daily Weather History Graph

Search for Another Location

Airport:

Trip Planner

Search our weather history database for the weather conditions in past years. The results will help you decide how hot, cold, wet, or windy it might be!

Date:

Astronomy

Dec. 03, 2013 Rise Set
Actual Time 7:16 AM EST 5:20 PM EST
Civil Twilight 6:48 AM EST 5:47 PM EST
Nautical Twilight 6:18 AM EST 6:18 PM EST
Astronomical Twilight 5:47 AM EST 6:48 PM EST
Moon 7:45 AM EST (12/3) 6:21 PM EST (12/3)
Length of Visible Light 10h 58m
Length of Day
10h 03m
New Moon, 1% of the Moon is Illuminated
Dec 3
New Moon
Dec 9
First Quarter
Dec 17
Full
Dec 25
Last Quarter
Jan 1
New

Hourly Weather History & Observations

Time (EST) Temp. Dew Point Humidity Pressure Visibility Wind Dir Wind Speed Gust Speed Precip Events Conditions
12:53 AM 52.0 °F 46.9 °F 83% 29.90 in 10.0 mi Calm Calm - 0.01 in Rain Light Rain
1:53 AM 53.1 °F 48.0 °F 83% 29.89 in 10.0 mi Calm Calm - 0.00 in   Overcast
2:53 AM 52.0 °F 48.0 °F 86% 29.88 in 10.0 mi NE 3.5 mph - N/A   Mostly Cloudy
3:53 AM 51.1 °F 45.0 °F 80% 29.88 in 10.0 mi Calm Calm - N/A   Overcast
4:53 AM 51.1 °F 44.1 °F 77% 29.88 in 10.0 mi SE 4.6 mph - N/A   Mostly Cloudy
5:53 AM 51.1 °F 45.0 °F 80% 29.90 in 10.0 mi SE 3.5 mph - N/A   Overcast
6:53 AM 52.0 °F 45.0 °F 77% 29.91 in 10.0 mi Calm Calm - N/A   Overcast
7:53 AM 53.1 °F 46.0 °F 77% 29.93 in 10.0 mi ESE 4.6 mph - N/A   Overcast
8:53 AM 52.0 °F 46.9 °F 83% 29.94 in 10.0 mi SE 3.5 mph - 0.00 in Rain Light Rain
9:53 AM 53.1 °F 48.0 °F 83% 29.96 in 8.0 mi ESE 3.5 mph - 0.00 in Rain Light Rain
10:53 AM 53.1 °F 50.0 °F 89% 29.96 in 5.0 mi SE 3.5 mph - 0.01 in Rain Light Rain
11:53 AM 53.1 °F 51.1 °F 93% 29.95 in 2.5 mi SSE 3.5 mph - 0.02 in Rain Light Rain
12:21 PM 54.0 °F 52.0 °F 93% 29.94 in 3.0 mi ESE 3.5 mph - 0.01 in Rain Light Rain
12:53 PM 55.0 °F 53.1 °F 93% 29.92 in 3.0 mi SE 4.6 mph - 0.01 in   Overcast
1:02 PM 55.0 °F 53.1 °F 93% 29.92 in 3.0 mi SE 3.5 mph - N/A   Overcast
1:29 PM 55.9 °F 54.0 °F 93% 29.91 in 4.0 mi ESE 3.5 mph - N/A   Overcast
1:53 PM 57.9 °F 54.0 °F 87% 29.90 in 6.0 mi ESE 3.5 mph - N/A   Overcast
2:01 PM 57.9 °F 54.0 °F 87% 29.90 in 7.0 mi Calm Calm - N/A   Mostly Cloudy
2:36 PM 59.0 °F 55.0 °F 87% 29.90 in 8.0 mi East 5.8 mph - N/A   Overcast
2:53 PM 60.1 °F 55.0 °F 83% 29.90 in 8.0 mi ESE 5.8 mph - N/A   Mostly Cloudy
3:07 PM 60.1 °F 55.9 °F 86% 29.90 in 8.0 mi SSE 5.8 mph - N/A   Scattered Clouds
3:53 PM 61.0 °F 55.9 °F 83% 29.90 in 10.0 mi SE 6.9 mph - N/A   Overcast
4:53 PM 61.0 °F 57.0 °F 87% 29.90 in 10.0 mi SE 4.6 mph - 0.00 in   Overcast
5:11 PM 61.0 °F 57.0 °F 87% 29.91 in 10.0 mi ESE 3.5 mph - 0.00 in   Overcast
5:53 PM 60.1 °F 57.9 °F 93% 29.93 in 5.0 mi South 4.6 mph - 0.09 in Rain Light Rain
6:18 PM 59.0 °F 57.9 °F 96% 29.93 in 5.0 mi SE 4.6 mph - 0.04 in Rain Light Rain
6:46 PM 59.0 °F 57.9 °F 96% 29.93 in 3.0 mi ESE 6.9 mph - 0.10 in Rain Rain
6:51 PM 59.0 °F 57.2 °F 94% 29.93 in 3.0 mi SE 5.8 mph - 0.11 in Rain Light Rain
6:53 PM 59.0 °F 59.0 °F 100% 29.93 in 3.0 mi SSE 6.9 mph - 0.11 in Rain Light Rain
7:01 PM 59.0 °F 57.9 °F 96% 29.93 in 2.5 mi ESE 8.1 mph - 0.01 in Rain Rain
7:15 PM 59.0 °F 57.9 °F 96% 29.93 in 1.5 mi SE 6.9 mph - 0.02 in Rain Light Rain
7:32 PM 59.0 °F 59.0 °F 100% 29.93 in 2.0 mi SE 6.9 mph - 0.02 in Rain Light Rain
7:44 PM 59.0 °F 57.9 °F 96% 29.93 in 4.0 mi SE 8.1 mph - 0.02 in Rain Light Rain
7:53 PM 59.0 °F 57.9 °F 96% 29.93 in 4.0 mi SE 8.1 mph - 0.02 in Rain Light Rain
8:53 PM 59.0 °F 57.9 °F 96% 29.94 in 4.0 mi SSE 9.2 mph - 0.01 in Rain Light Rain
9:53 PM 59.0 °F 57.9 °F 96% 29.94 in 5.0 mi ESE 6.9 mph - 0.15 in Rain Light Rain
10:04 PM 59.0 °F 57.9 °F 96% 29.94 in 4.0 mi ESE 6.9 mph - 0.02 in Rain Rain
10:14 PM 59.0 °F 57.9 °F 96% 29.95 in 3.0 mi ESE 4.6 mph - 0.07 in Rain Rain
10:25 PM 59.0 °F 57.9 °F 96% 29.97 in 2.5 mi South 3.5 mph - 0.12 in Rain Rain
10:37 PM 59.0 °F 57.0 °F 93% 29.97 in 3.0 mi SE 5.8 mph - 0.20 in Rain Rain
10:44 PM 59.0 °F 57.9 °F 96% 29.97 in 4.0 mi ESE 3.5 mph - 0.22 in Rain Heavy Rain
10:53 PM 59.0 °F 57.0 °F 93% 29.96 in 2.5 mi ESE 8.1 mph - 0.29 in Rain Heavy Rain
11:02 PM 60.1 °F 57.0 °F 90% 29.96 in 4.0 mi East 5.8 mph - 0.02 in Rain Rain
11:53 PM 57.9 °F 57.0 °F 97% 29.96 in 5.0 mi ESE 5.8 mph - 0.07 in Rain Light Rain